When you browse on this site, cookies collect data to enhance your experience and personalize the content and advertising you see.
Visit our Privacy Policy to learn more. By continuing to use the site, you agree to this use of cookies and data.
  • In Hungary
  • List of Countries
  • For 7 days
  • Water Temperature
  • Satellite Maps
  • Weather Map
  • News
  • Weather Widgets
  • user-avatar
    Login

    Hourly Weather Sidi-bu-Said

    Today, 20 April, Saturday

    Time Temperature Precipitation Wind Pressure Humidity
    00:00 +14°C° 0 mm 6 mps 734 mmHg 76%
    01:00 +14°C° 0 mm 6 mps 734 mmHg 78%
    02:00 +13°C° 0 mm 6 mps 734 mmHg 79%
    03:00 +13°C° 0 mm 6 mps 733 mmHg 81%
    04:00 +13°C° 0 mm 5 mps 733 mmHg 82%
    05:00 +13°C° 0 mm 6 mps 733 mmHg 82%
    06:00 +13°C° 0 mm 6 mps 733 mmHg 82%
    07:00 +12°C° 0 mm 7 mps 733 mmHg 83%
    08:00 +14°C° 0 mm 7 mps 733 mmHg 76%
    09:00 +16°C° 0 mm 8 mps 733 mmHg 70%
    10:00 +17°C° 0 mm 8 mps 733 mmHg 63%
    11:00 +18°C° 0 mm 9 mps 732 mmHg 59%
    12:00 +21°C° 0 mm 9 mps 732 mmHg 54%
    13:00 +22°C° 0 mm 10 mps 732 mmHg 50%
    14:00 +22°C° 0 mm 10 mps 731 mmHg 50%
    15:00 +22°C° 0 mm 10 mps 730 mmHg 49%
    16:00 +22°C° 0 mm 10 mps 730 mmHg 49%
    17:00 +21°C° 0 mm 9 mps 730 mmHg 53%
    18:00 +18°C° 0 mm 9 mps 729 mmHg 58%
    19:00 +17°C° 0 mm 8 mps 729 mmHg 62%
    20:00 +17°C° 0 mm 8 mps 729 mmHg 64%
    21:00 +16°C° 0 mm 8 mps 730 mmHg 67%
    22:00 +15°C° 0 mm 7 mps 730 mmHg 69%
    23:00 +15°C° 0 mm 7 mps 730 mmHg 71%

    Tomorrow, 21 April, Sunday

    Time Temperature Precipitation Wind Pressure Humidity
    00:00 +15°C° 0 mm 7 mps 729 mmHg 72%
    01:00 +14°C° 0 mm 7 mps 729 mmHg 74%
    02:00 +14°C° 0 mm 7 mps 728 mmHg 76%
    03:00 +14°C° 0 mm 7 mps 728 mmHg 78%
    04:00 +12°C° 0 mm 7 mps 727 mmHg 81%
    05:00 +13°C° 0 mm 6 mps 727 mmHg 81%
    06:00 +14°C° 0 mm 6 mps 727 mmHg 81%
    07:00 +14°C° 0 mm 6 mps 726 mmHg 81%
    08:00 +16°C° 0 mm 6 mps 726 mmHg 72%
    09:00 +19°C° 0 mm 6 mps 726 mmHg 63%
    10:00 +21°C° 0 mm 6 mps 726 mmHg 54%
    11:00 +23°C° 0 mm 6 mps 726 mmHg 46%
    12:00 +26°C° 0 mm 6 mps 725 mmHg 38%
    13:00 +28°C° 0 mm 6 mps 725 mmHg 31%
    14:00 +28°C° 0 mm 6 mps 724 mmHg 30%
    15:00 +29°C° 0 mm 6 mps 724 mmHg 29%
    16:00 +29°C° 0 mm 6 mps 723 mmHg 28%
    17:00 +28°C° 0 mm 6 mps 723 mmHg 34%
    18:00 +26°C° 0 mm 6 mps 723 mmHg 40%
    19:00 +23°C° 0 mm 6 mps 723 mmHg 47%
    20:00 +21°C° 0 mm 6 mps 723 mmHg 54%
    21:00 +20°C° 0 mm 6 mps 723 mmHg 61%
    22:00 +17°C° 0 mm 6 mps 723 mmHg 68%
    23:00 +17°C° 0 mm 5 mps 723 mmHg 74%

    Day after tomorrow, 22 April, Monday

    Time Temperature Precipitation Wind Pressure Humidity
    00:00 +17°C° 0 mm 4 mps 722 mmHg 79%
    01:00 +16°C° 0 mm 3 mps 722 mmHg 84%
    02:00 +16°C° 0 mm 2 mps 722 mmHg 83%
    03:00 +16°C° 0 mm 1 mps 721 mmHg 82%
    04:00 +15°C° 0 mm 0 mps 721 mmHg 81%
    05:00 +19°C° 0 mm 1 mps 721 mmHg 71%
    06:00 +19°C° 0 mm 2 mps 721 mmHg 61%
    07:00 +20°C° 0 mm 3 mps 721 mmHg 51%
    08:00 +22°C° 0 mm 6 mps 721 mmHg 41%
    09:00 +24°C° 0 mm 10 mps 721 mmHg 32%
    10:00 +27°C° 0 mm 14 mps 721 mmHg 23%
    11:00 +28°C° 0 mm 14 mps 721 mmHg 23%
    12:00 +28°C° 0 mm 15 mps 722 mmHg 23%
    13:00 +28°C° 0 mm 15 mps 722 mmHg 23%
    14:00 +28°C° 0 mm 15 mps 722 mmHg 23%
    15:00 +28°C° 0 mm 14 mps 722 mmHg 22%
    16:00 +28°C° 0 mm 14 mps 722 mmHg 22%
    17:00 +27°C° 0 mm 12 mps 722 mmHg 24%
    18:00 +26°C° 0 mm 9 mps 723 mmHg 26%
    19:00 +24°C° 0 mm 7 mps 723 mmHg 28%
    20:00 +23°C° 0 mm 6 mps 724 mmHg 30%
    21:00 +23°C° 0 mm 4 mps 724 mmHg 32%
    22:00 +22°C° 0 mm 3 mps 725 mmHg 34%
    23:00 +21°C° 0 mm 2 mps 725 mmHg 36%

    23 April, Tuesday

    Time Temperature Precipitation Wind Pressure Humidity
    00:00 +21°C° 0 mm 2 mps 724 mmHg 38%
    01:00 +21°C° 0 mm 1 mps 724 mmHg 40%
    02:00 +21°C° 0 mm 1 mps 724 mmHg 40%
    03:00 +20°C° 0 mm 2 mps 724 mmHg 39%
    04:00 +19°C° 0 mm 2 mps 724 mmHg 39%
    05:00 +20°C° 0 mm 2 mps 724 mmHg 37%
    06:00 +20°C° 0 mm 2 mps 725 mmHg 36%
    07:00 +22°C° 0 mm 1 mps 725 mmHg 34%
    08:00 +24°C° 0 mm 2 mps 725 mmHg 30%
    09:00 +25°C° 0 mm 3 mps 726 mmHg 26%
    10:00 +27°C° 0 mm 4 mps 726 mmHg 22%
    11:00 +28°C° 0 mm 4 mps 726 mmHg 21%
    12:00 +29°C° 0 mm 4 mps 726 mmHg 20%
    13:00 +30°C° 0 mm 5 mps 726 mmHg 18%
    14:00 +30°C° 0 mm 5 mps 726 mmHg 18%
    15:00 +32°C° 0 mm 5 mps 725 mmHg 17%
    16:00 +32°C° 0 mm 5 mps 725 mmHg 17%
    17:00 +30°C° 0 mm 5 mps 726 mmHg 20%
    18:00 +29°C° 0 mm 5 mps 726 mmHg 23%
    19:00 +28°C° 0 mm 6 mps 726 mmHg 25%
    20:00 +26°C° 0 mm 5 mps 727 mmHg 29%
    21:00 +25°C° 0 mm 4 mps 727 mmHg 33%
    22:00 +24°C° 0 mm 3 mps 728 mmHg 36%
    23:00 +23°C° 0 mm 2 mps 728 mmHg 39%

    24 April, Wednesday

    Time Temperature Precipitation Wind Pressure Humidity
    00:00 +23°C° 0 mm 2 mps 728 mmHg 41%
    01:00 +22°C° 0 mm 1 mps 728 mmHg 44%
    02:00 +20°C° 0 mm 2 mps 728 mmHg 46%
    03:00 +20°C° 0 mm 2 mps 728 mmHg 48%
    04:00 +19°C° 0 mm 3 mps 728 mmHg 51%
    05:00 +19°C° 0 mm 3 mps 728 mmHg 52%
    06:00 +19°C° 0 mm 3 mps 728 mmHg 54%
    07:00 +19°C° 0 mm 3 mps 729 mmHg 55%
    08:00 +21°C° 0 mm 4 mps 729 mmHg 50%
    09:00 +23°C° 0 mm 5 mps 729 mmHg 45%
    10:00 +26°C° 0 mm 6 mps 729 mmHg 39%
    11:00 +27°C° 0 mm 6 mps 728 mmHg 36%
    12:00 +28°C° 0 mm 6 mps 728 mmHg 33%
    13:00 +30°C° 0 mm 7 mps 728 mmHg 30%
    14:00 +30°C° 0 mm 7 mps 728 mmHg 29%
    15:00 +30°C° 0 mm 6 mps 727 mmHg 28%
    16:00 +32°C° 0 mm 6 mps 727 mmHg 27%
    17:00 +29°C° 0 mm 6 mps 727 mmHg 32%
    18:00 +28°C° 0 mm 6 mps 727 mmHg 37%
    19:00 +26°C° 0 mm 5 mps 727 mmHg 42%
    20:00 +25°C° 0 mm 5 mps 728 mmHg 48%
    21:00 +23°C° 0 mm 4 mps 728 mmHg 54%
    22:00 +22°C° 0 mm 3 mps 728 mmHg 60%
    23:00 +21°C° 0 mm 2 mps 728 mmHg 62%

    25 April, Thursday

    Time Temperature Precipitation Wind Pressure Humidity
    00:00 +21°C° 0 mm 2 mps 728 mmHg 64%
    01:00 +21°C° 0 mm 1 mps 728 mmHg 66%
    02:00 +20°C° 0 mm 2 mps 728 mmHg 67%
    03:00 +19°C° 0 mm 3 mps 728 mmHg 68%
    04:00 +19°C° 0 mm 3 mps 728 mmHg 69%
    05:00 +19°C° 0 mm 4 mps 728 mmHg 69%
    06:00 +19°C° 0 mm 4 mps 729 mmHg 69%
    07:00 +17°C° 0 mm 5 mps 729 mmHg 70%
    08:00 +20°C° 0 mm 5 mps 730 mmHg 63%
    09:00 +21°C° 0 mm 5 mps 730 mmHg 56%
    10:00 +23°C° 0 mm 5 mps 731 mmHg 49%
    11:00 +25°C° 0 mm 5 mps 731 mmHg 45%
    12:00 +26°C° 0 mm 5 mps 731 mmHg 41%
    13:00 +27°C° 0 mm 4 mps 732 mmHg 37%
    14:00 +28°C° 0 mm 5 mps 732 mmHg 36%
    15:00 +28°C° 0 mm 5 mps 732 mmHg 36%
    16:00 +28°C° 0 mm 5 mps 732 mmHg 35%
    17:00 +26°C° 0 mm 6 mps 732 mmHg 40%
    18:00 +23°C° 0 mm 7 mps 733 mmHg 44%
    19:00 +21°C° 0 mm 7 mps 733 mmHg 48%
    20:00 +21°C° 0 mm 7 mps 734 mmHg 49%
    21:00 +20°C° 0 mm 6 mps 735 mmHg 50%
    22:00 +19°C° 0 mm 6 mps 736 mmHg 50%
    23:00 +17°C° 0 mm 5 mps 736 mmHg 49%
    Show more